Latest Coastal Weather Observations for Truscott

IDW60701

Issued at 5:05 am WST Tuesday 2 September 2014 (issued every 10 minutes, with the page automatically refreshed every 10 minutes)

About coastal observations | Map of coastal stations | Coastal observations for WA | Marine services | Other Formats
Station Details ID: 001020 Name: TRUSCOTT Lat: -14.09 Lon: 126.39 Height: 51.0 m
Data from the previous 72 hours. | See also: Recent months at Truscott
Date/Time
WST
Temp

°C
Wind Pressure Rain
since 9am
mm
Weather Cloud Vis
km
Sea
Height
m
Swell
Dir
 
Speed
knots
Gust
knots
hPa Trend Height
m
Period
s
Dir
02/05:00am 16.0 SSW 3 3 1014.0 - 0.0 - - 10 - - - -
02/04:30am 17.0 SSW 4 - 1014.0 - 0.0 - - 10 - - - -
02/04:00am 19.0 SSW 5 - 1013.0 - 0.0 - - 10 - - - -
02/03:30am 20.0 SSW 5 - 1013.0 - 0.0 - - 10 - - - -
02/03:00am 19.8 SSW 6 - 1013.3 - 0.0 - - 10 - - - -
02/02:30am 19.0 SW 5 - 1013.0 - 0.0 - - 10 - - - -
02/02:00am 18.0 SSW 4 - 1013.0 - 0.0 - - 10 - - - -
02/01:30am 18.0 S 3 - 1014.0 - 0.0 - - 10 - - - -
02/01:00am 18.0 CALM 0 - 1014.0 - 0.0 - - 10 - - - -
02/12:30am 18.0 CALM 0 - 1014.0 - 0.0 - - 10 - - - -
02/12:00am 18.3 SSW 1 0 1014.1 - 0.0 - - 10 - - - -
 
Date/Time
WST
Temp

°C
Wind Pressure Rain
since 9am
mm
Weather Cloud Vis
km
Sea
Height
m
Swell
Dir
 
Speed
knots
Gust
knots
hPa Trend Height
m
Period
s
Dir
01/11:30pm 19.0 CALM 0 - 1014.0 - 0.0 - - 10 - - - -
01/11:00pm 19.0 CALM 0 - 1014.0 - 0.0 - - 10 - - - -
01/10:30pm 19.0 CALM 0 - 1014.0 - 0.0 - - 10 - - - -
01/10:00pm 20.0 CALM 0 - 1014.0 - 0.0 - - 10 - - - -
01/09:30pm 20.0 CALM 0 - 1015.0 - 0.0 - - 10 - - - -
01/09:00pm 20.4 CALM 0 - 1014.4 - 0.0 - - 10 - - - -
01/08:30pm 20.0 CALM 0 - 1014.0 - 0.0 - - 10 - - - -
01/08:00pm 21.0 CALM 0 - 1014.0 - 0.0 - - 10 - - - -
01/07:30pm 21.0 CALM 0 - 1014.0 - 0.0 - - 10 - - - -
01/07:00pm 22.0 N 3 - 1014.0 - 0.0 - - 10 - - - -
01/06:30pm 23.0 N 3 - 1013.0 - 0.0 - - 10 - - - -
01/06:00pm 23.2 N 4 - 1012.8 - 0.0 - - 10 - - - -
01/05:30pm 24.0 N 7 - 1012.0 - 0.0 - - 10 - - - -
01/05:00pm 25.0 N 7 - 1012.0 - 0.0 - - 10 - - - -
01/04:30pm 26.0 N 8 - 1012.0 - 0.0 - - 10 - - - -
01/04:00pm 27.0 N 8 - 1011.0 - 0.0 - - 10 - - - -
01/03:30pm 28.0 N 10 - 1011.0 - 0.0 - - 10 - - - -
01/03:00pm 28.3 N 10 - 1011.3 - 0.0 - - 10 - - - -
01/02:30pm 30.0 N 10 - 1011.0 - 0.0 - - 10 - - - -
01/02:00pm 30.0 N 11 - 1011.0 - 0.0 - - 10 - - - -
01/01:30pm 30.0 N 13 - 1012.0 - 0.0 - - 10 - - - -
01/01:00pm 32.0 NNE 9 - 1012.0 - 0.0 - - 10 - - - -
01/12:30pm 33.0 E 9 - 1012.0 - 0.0 - - 10 - - - -
01/12:00pm 33.3 E 6 - 1012.7 - 0.0 - - 10 - - - -
01/11:30am 33.0 ESE 9 - 1013.0 - 0.0 - - 10 - - - -
01/11:00am 32.0 SE 8 - 1013.0 - 0.0 - - 10 - - - -
01/10:30am 32.0 ESE 8 - 1014.0 - 0.0 - - 10 - - - -
01/10:00am 32.0 E 6 - 1014.0 - 0.0 - - 10 - - - -
01/09:30am 30.0 SSE 4 - 1015.0 - 0.0 - - 10 - - - -
01/09:00am 28.8 S 6 - 1015.2 - 0.0 - - 10 - - - -
01/08:30am 27.0 SSW 8 - 1015.0 - 0.0 - - 10 - - - -
01/08:00am 26.0 SSW 7 - 1015.0 - 0.0 - - 10 - - - -
01/07:30am 25.0 S 6 - 1015.0 - 0.0 - - 10 - - - -
01/07:00am 23.0 SSW 6 - 1015.0 - 0.0 - - 10 - - - -
01/06:30am 21.0 SSW 6 - 1014.0 - 0.0 - - 10 - - - -
01/06:00am 17.5 SW 4 - 1014.1 - 0.0 - - 10 - - - -
01/05:30am 18.0 SSW 4 - 1014.0 - 0.0 - - 10 - - - -
01/05:00am 19.0 SW 4 - 1014.0 - 0.0 - - 10 - - - -
01/04:30am 20.0 SSW 6 - 1013.0 - 0.0 - - 10 - - - -
01/04:00am 20.0 SSW 7 - 1013.0 - 0.0 - - 10 - - - -
01/03:30am 20.0 SW 5 - 1013.0 - 0.0 - - 10 - - - -
01/03:00am 19.7 SSW 6 - 1012.9 - 0.0 - - 10 - - - -
01/02:30am 20.0 SW 6 - 1013.0 - 0.0 - - 10 - - - -
01/02:00am 20.0 SSW 6 - 1013.0 - 0.0 - - 10 - - - -
01/01:30am 20.0 SW 4 - 1013.0 - 0.0 - - 10 - - - -
01/01:00am 20.0 SW 5 - 1013.0 - 0.0 - - 10 - - - -
01/12:30am 18.0 SW 3 - 1013.0 - 0.0 - - 10 - - - -
01/12:00am 18.5 SSE 1 - 1012.7 - 0.0 - - 10 - - - -
 
Date/Time
WST
Temp

°C
Wind Pressure Rain
since 9am
mm
Weather Cloud Vis
km
Sea
Height
m
Swell
Dir
 
Speed
knots
Gust
knots
hPa Trend Height
m
Period
s
Dir
31/11:30pm 18.0 CALM 0 - 1013.0 - 0.0 - - 10 - - - -
31/11:00pm 18.0 CALM 0 - 1013.0 - 0.0 - - 10 - - - -
31/10:30pm 18.0 CALM 0 - 1013.0 - 0.0 - - 10 - - - -
31/10:00pm 18.0 CALM 0 - 1013.0 - 0.0 - - 10 - - - -
31/09:30pm 19.0 CALM 0 - 1013.0 - 0.0 - - 10 - - - -
31/09:00pm 19.9 CALM 0 - 1012.8 - 0.0 - - 10 - - - -
31/08:30pm 21.0 E 4 - 1013.0 - 0.0 - - 10 - - - -
31/08:00pm 22.0 E 4 - 1013.0 - 0.0 - - 10 - - - -
31/07:30pm 24.0 ENE 4 - 1012.0 - 0.0 - - 10 - - - -
31/07:00pm 25.0 NE 6 - 1012.0 - 0.0 - - 10 - - - -
31/06:30pm 26.0 NE 6 - 1012.0 - 0.0 - - 10 - - - -
31/06:00pm 25.6 NE 5 - 1011.1 - 0.0 - - 10 - - - -
31/05:30pm 26.0 NNE 7 - 1011.0 - 0.0 - - 10 - - - -
31/05:00pm 27.0 NNE 8 - 1011.0 - 0.0 - - 10 - - - -
31/04:30pm 29.0 NNE 8 - 1010.0 - 0.0 - - 10 - - - -
31/04:00pm 31.0 NE 10 - 1010.0 - 0.0 - - 10 - - - -
31/03:30pm 31.0 NE 9 - 1010.0 - 0.0 - - 10 - - - -
31/03:00pm 32.0 ENE 9 - 1010.5 - 0.0 - - 10 - - - -
31/02:30pm 32.0 ENE 10 - 1011.0 - 0.0 - - 10 - - - -
31/02:00pm 32.0 ENE 8 - 1011.0 - 0.0 - - 10 - - - -
31/01:30pm 32.0 E 10 - 1011.0 - 0.0 - - 10 - - - -
31/01:00pm 32.0 ENE 9 - 1012.0 - 0.0 - - 10 - - - -
31/12:30pm 32.0 ENE 9 - 1012.0 - 0.0 - - 10 - - - -
31/12:00pm 31.4 E 9 - 1012.4 - 0.0 - - 10 - - - -
31/11:30am 31.0 ENE 9 - 1013.0 - 0.0 - - 10 - - - -
31/11:00am 30.0 E 10 - 1013.0 - 0.0 - - 10 - - - -
31/10:30am 30.0 E 10 - 1014.0 - 0.0 - - 10 - - - -
31/10:00am 30.0 E 10 - 1014.0 - 0.0 - - 10 - - - -
31/09:30am 29.0 ESE 11 - 1014.0 - 0.0 - - 10 - - - -
31/09:00am 29.0 ESE 8 - 1014.7 - 0.0 - - 10 - - - -
31/08:30am 28.0 ESE 9 - 1015.0 - 0.0 - - 10 - - - -
31/08:00am 27.0 ESE 6 - 1015.0 - 0.0 - - 10 - - - -
31/07:30am 25.0 SSE 5 - 1014.0 - 0.0 - - 10 - - - -
31/07:00am 23.0 SSE 5 - 1014.0 - 0.0 - - 10 - - - -
31/06:30am 20.0 S 5 - 1014.0 - 0.0 - - 10 - - - -
31/06:00am 18.2 S 4 - 1013.6 - 0.0 - - 10 - - - -
31/05:30am 21.0 SW 8 - 1013.0 - 0.0 - - 10 - - - -
31/05:00am 20.0 SW 6 - 1013.0 - 0.0 - - 10 - - - -
31/04:30am 20.0 SW 7 - 1013.0 - 0.0 - - 10 - - - -
31/04:00am 21.0 SSW 8 - 1013.0 - 0.0 - - 10 - - - -
31/03:30am 21.0 SSW 9 - 1013.0 - 0.0 - - 10 - - - -
31/03:00am 20.8 SSW 8 - 1012.7 - 0.0 - - 10 - - - -
31/02:30am 20.0 SW 6 - 1013.0 - 0.0 - - 10 - - - -
31/02:00am 21.0 SSW 7 - 1013.0 - 0.0 - - 10 - - - -
31/01:30am 21.0 SSW 6 - 1013.0 - 0.0 - - 10 - - - -
31/01:00am 21.0 SSW 8 - 1013.0 - 0.0 - - 10 - - - -
31/12:30am 20.0 SSW 6 - 1013.0 - 0.0 - - 10 - - - -
31/12:00am 20.7 SSW 5 - 1013.2 - 0.0 - - 10 - - - -
 
Date/Time
WST
Temp

°C
Wind Pressure Rain
since 9am
mm
Weather Cloud Vis
km
Sea
Height
m
Swell
Dir
 
Speed
knots
Gust
knots
hPa Trend Height
m
Period
s
Dir
30/11:30pm 19.0 SSW 4 - 1013.0 - 0.0 - - 10 - - - -
30/11:00pm 20.0 SW 3 - 1014.0 - 0.0 - - 10 - - - -
30/10:30pm 20.0 SE 2 - 1014.0 - 0.0 - - 10 - - - -
30/10:00pm 19.0 E 4 - 1013.0 - 0.0 - - 10 - - - -
30/09:30pm 21.0 E 4 - 1014.0 - 0.0 - - 10 - - - -
30/09:00pm 21.5 E 4 - 1013.7 - 0.0 - - 10 - - - -
30/08:30pm 22.0 E 6 - 1014.0 - 0.0 - - 10 - - - -
30/08:00pm 22.0 E 5 - 1014.0 - 0.0 - - 10 - - - -
30/07:30pm 23.0 ENE 5 - 1013.0 - 0.0 - - 10 - - - -
30/07:00pm 23.0 ENE 4 - 1013.0 - 0.0 - - 10 - - - -
30/06:30pm 24.0 NE 3 - 1012.0 - 0.0 - - 10 - - - -
30/06:00pm 25.3 NNE 5 - 1012.0 - 0.0 - - 10 - - - -
30/05:30pm 27.0 NNE 6 - 1012.0 - 0.0 - - 10 - - - -
30/05:00pm 28.0 NNE 6 - 1012.0 - 0.0 - - 10 - - - -
30/04:30pm 29.0 NNE 7 - 1011.0 - 0.0 - - 10 - - - -
30/04:00pm 29.0 NNE 10 - 1011.0 - 0.0 - - 10 - - - -
30/03:30pm 30.0 N 10 - 1011.0 - 0.0 - - 10 - - - -
30/03:00pm 30.5 N 11 - 1010.7 - 0.0 - - 10 - - - -
30/02:30pm 30.0 N 10 - 1011.0 - 0.0 - - 10 - - - -
30/02:00pm 32.0 ENE 7 - 1011.0 - 0.0 - - 10 - - - -
30/01:30pm 32.0 E 10 - 1012.0 - 0.0 - - 10 - - - -
30/01:00pm 32.0 ENE 8 - 1012.0 - 0.0 - - 10 - - - -
30/12:30pm 32.0 ENE 9 - 1012.0 - 0.0 - - 10 - - - -
30/12:00pm 31.6 ENE 11 - 1012.9 - 0.0 - - 10 - - - -
30/11:30am 32.0 E 8 - 1013.0 - 0.0 - - 10 - - - -
30/11:00am 31.0 E 10 - 1014.0 - 0.0 - - 10 - - - -
30/10:30am 30.0 E 11 - 1014.0 - 0.0 - - 10 - - - -
30/10:00am 31.0 ESE 9 - 1015.0 - 0.0 - - 10 - - - -
30/09:30am 30.0 ESE 11 - 1015.0 - 0.0 - - 10 - - - -
30/09:00am 29.9 ESE 7 - 1015.4 - 0.0 - - 10 - - - -
30/08:30am 29.0 SE 6 - 1016.0 - 0.0 - - 10 - - - -
30/08:00am 26.0 SSE 5 - 1016.0 - 0.0 - - 10 - - - -
30/07:30am 24.0 SSW 6 - 1015.0 - 0.0 - - 10 - - - -
30/07:00am 21.0 SSW 5 - 1015.0 - 0.0 - - 10 - - - -
30/06:30am 19.0 SSW 5 - 1015.0 - 0.0 - - 10 - - - -
30/06:00am 17.9 SSW 6 - 1014.4 - 0.0 - - 10 - - - -
30/05:30am 19.0 SSW 6 - 1014.0 - 0.0 - - 10 - - - -

Other Formats:

Comma delimited format used in spreadsheet applications
http://www.bom.gov.au/fwo/IDW60701/IDW60701.95101.axf

JavaScript Object Notation format (JSON) in row-major order
http://www.bom.gov.au/fwo/IDW60701/IDW60701.95101.json